Weather in Yunusemre

Turkey     38°43′17″N   27°17′06″E
temp.,
°C
wind,
m/s
gust,
m/s
humid.,
%
clouds,
%
prec.,
mm/h
press.,
hPa
HPBL,
m
13 april, tue
tue1300:00+8ene11705 0.0 102110
03:00+8e11745 0.0 102110
06:00+7e22795 0.0 102014
09:00+11ese226569 0.0 1021217
12:00+16se224847 0.0 1019752
15:00+19wsw454097 0.0 10181371
18:00+16w3549100 0.0 1017658
21:00+12w226588 0.0 101814
14 april, wed
wed1400:00+11wsw016945 0.0 101710
03:00+10ssw01705 0.0 101710
06:00+9e11732 0.0 101611
09:00+13ese226141 0.0 1016269
12:00+18ssw694495 0.0 10151484
15:00+19ssw81043100 0.0 10141577
18:00+17ssw6105686 0.0 10141333
21:00+11sw117753 0.0 101612
15 april, thu
thu1500:00+10se01820 0.0 101610
03:00+9e11865 0.0 101611
06:00+9ene228920 0.0 101612
09:00+13e22725 0.0 1016300
12:00+18ssw14533 0.0 10151436
15:00+20sw674110 0.1 10142366
18:00+18wsw565470 0.0 10131635
21:00+12wnw23905 0.1 101546
16 april, fri
fri1600:00+10nw11935 0.0 101615
03:00+10nw119313 0.0 101510
06:00+9nne119095 0.0 101511
09:00+13e22755 0.0 1016395
12:00+17se115572 0.0 10161402
15:00+19wnw3346100 0.0 10151689
18:00+17wnw4454100 0.0 1015705
21:00+12nnw1171100 0.0 101614
17 april, sat
sat1700:00+11e2277100 0.0 101636
03:00+10ese1179100 0.0 101614
06:00+10ese2278100 0.0 101540
09:00+10ese2388100 1.8 1016178
12:00+12e478074 0.3 1014403
15:00+17e4565100 0.3 1012716
18:00+19ene226395 0.0 1011590
21:00+14e22860 0.0 101117